Location: *
(45.1961°N, 1.9694°E)
Time: 11:34:45
(UTC+00:00)

Cosmos 1340 - Pass Details

Date: 25 August 2019
Orbit: 502 x 507 km, 81.2° (Epoch: 20 October)

Event Time Altitude Azimuth Distance (km) Brightness Sun altitude
Exits shadow 20:31:03 42° 99° (E) 730 3.0 -17.9°
Maximum altitude 20:31:08 42° 95° (E) 729 3.0 -17.9°
Drops below altitude 10° 20:34:43 10° 24° (NNE) 1,725 5.5 -18.4°
Sets 20:36:55 0° 18° (NNE) 2,616 6.6 -18.7°
